| time (UTC) | temp C | wind direction | speed KPH | gust KPH | rain 1hr cm | rain 24hr cm | rain mn cm | humidity % | barometer mb |
| 20260507114357 | 16 | 122 | 0.0 | 9.7 | 0.00 | 0.00 | 0.00 | 59 | 1016.1 |
| 20260507113857 | 15 | 279 | 1.6 | 9.7 | 0.00 | 0.00 | 0.00 | 67 | 1016.3 |
| 20260507113358 | 15 | 262 | 3.2 | 6.4 | 0.00 | 0.00 | 0.00 | 65 | 1016.2 |
| 20260507112857 | 15 | 260 | 4.8 | 4.8 | 0.00 | 0.00 | 0.00 | 62 | 1016.1 |
| 20260507112357 | 15 | 321 | 3.2 | 6.4 | 0.00 | 0.00 | 0.00 | 64 | 1016.2 |
| 20260507112121 | 14 | 189 | 4.8 | 6.4 | 0.00 | 0.00 | 0.00 | 68 | 1016.2 |
| 20260507111357 | 14 | 186 | 0.0 | 4.8 | 0.00 | 0.00 | 0.00 | 69 | 1016.2 |
| 20260507110859 | 14 | 231 | 0.0 | 4.8 | 0.00 | 0.00 | 0.00 | 68 | 1016.3 |
| 20260507110615 | 14 | 188 | 0.0 | 6.4 | 0.00 | 0.00 | 0.00 | 66 | 1016.4 |
| 20260507110135 | 14 | 258 | 4.8 | 11.3 | 0.00 | 0.00 | 0.00 | 67 | 1016.3 |
| 20260507105356 | 15 | 263 | 4.8 | 11.3 | 0.00 | 0.00 | 0.00 | 67 | 1016.4 |
| 20260507104856 | 15 | 200 | 3.2 | 9.7 | 0.00 | 0.00 | 0.00 | 71 | 1016.3 |
| 20260507104359 | 14 | 161 | 3.2 | 11.3 | 0.00 | 0.00 | 0.00 | 70 | 1016.6 |
| 20260507104124 | 14 | 223 | 6.4 | 11.3 | 0.00 | 0.00 | 0.00 | 71 | 1016.4 |
| 20260507103357 | 13 | 198 | 4.8 | 11.3 | 0.00 | 0.00 | 0.00 | 73 | 1016.3 |
| 20260507102857 | 13 | 212 | 3.2 | 11.3 | 0.00 | 0.00 | 0.00 | 72 | 1016.4 |
| 20260507102355 | 13 | 102 | 4.8 | 11.3 | 0.00 | 0.00 | 0.00 | 69 | 1016.4 |
| 20260507101902 | 13 | 79 | 1.6 | 6.4 | 0.00 | 0.00 | 0.00 | 70 | 1016.4 |
| 20260507101358 | 13 | 44 | 1.6 | 14.5 | 0.00 | 0.00 | 0.00 | 69 | 1016.4 |
| 20260507100857 | 13 | 210 | 0.0 | 14.5 | 0.00 | 0.00 | 0.00 | 67 | 1016.4 |
| 20260507100356 | 14 | 250 | 8.0 | 11.3 | 0.00 | 0.00 | 0.00 | 72 | 1016.6 |
| 20260507100127 | 14 | 174 | 3.2 | 12.9 | 0.00 | 0.00 | 0.00 | 70 | 1016.3 |
| 20260507095356 | 13 | 242 | 4.8 | 12.9 | 0.00 | 0.00 | 0.00 | 72 | 1016.4 |
| 20260507094907 | 13 | 168 | 0.0 | 6.4 | 0.00 | 0.00 | 0.00 | 68 | 1016.2 |
| 20260507094623 | 13 | 202 | 3.2 | 9.7 | 0.00 | 0.00 | 0.00 | 73 | 1016.2 |
| 20260507093856 | 13 | 231 | 6.4 | 9.7 | 0.00 | 0.00 | 0.00 | 72 | 1016.4 |
| 20260507093354 | 13 | 217 | 3.2 | 6.4 | 0.00 | 0.00 | 0.00 | 74 | 1016.5 |
| 20260507092854 | 13 | 188 | 3.2 | 6.4 | 0.00 | 0.00 | 0.00 | 79 | 1016.3 |
| 20260507092355 | 12 | 239 | 3.2 | 6.4 | 0.00 | 0.00 | 0.00 | 80 | 1016.4 |
| 20260507091854 | 12 | 200 | 3.2 | 6.4 | 0.00 | 0.00 | 0.00 | 81 | 1016.0 |
| 20260507091354 | 12 | 261 | 0.0 | 3.2 | 0.00 | 0.00 | 0.00 | 81 | 1016.2 |
| 20260507090854 | 12 | 242 | 1.6 | 3.2 | 0.00 | 0.00 | 0.00 | 83 | 1016.3 |
| 20260507090352 | 12 | 256 | 1.6 | 3.2 | 0.00 | 0.00 | 0.00 | 83 | 1016.1 |
| 20260507085855 | 11 | 285 | 0.0 | 3.2 | 0.00 | 0.00 | 0.00 | 89 | 1016.3 |
| 20260507085355 | 11 | 26 | 3.2 | 3.2 | 0.00 | 0.00 | 0.00 | 90 | 1016.1 |
| 20260507084857 | 11 | 43 | 1.6 | 4.8 | 0.00 | 0.00 | 0.00 | 91 | 1016.3 |
| 20260507084355 | 11 | 55 | 1.6 | 4.8 | 0.00 | 0.00 | 0.00 | 92 | 1015.9 |
| 20260507083854 | 11 | 93 | 1.6 | 4.8 | 0.00 | 0.00 | 0.00 | 93 | 1016.1 |
| 20260507083354 | 11 | 63 | 1.6 | 4.8 | 0.00 | 0.00 | 0.00 | 93 | 1016.1 |
| 20260507082854 | 11 | 59 | 0.0 | 4.8 | 0.00 | 0.00 | 0.00 | 93 | 1016.2 |
| 20260507082630 | 11 | 62 | 1.6 | 6.4 | 0.00 | 0.00 | 0.00 | 93 | 1016.2 |
| 20260507081853 | 10 | 40 | 4.8 | 6.4 | 0.00 | 0.00 | 0.00 | 94 | 1016.0 |
| 20260507081628 | 10 | 42 | 3.2 | 4.8 | 0.00 | 0.00 | 0.00 | 95 | 1016.0 |
| 20260507080856 | 10 | 40 | 3.2 | 6.4 | 0.00 | 0.00 | 0.00 | 95 | 1015.9 |
| 20260507080358 | 10 | 90 | 4.8 | 4.8 | 0.00 | 0.00 | 0.00 | 96 | 1016.1 |
| 20260507075859 | 10 | 23 | 3.2 | 4.8 | 0.00 | 0.00 | 0.00 | 96 | 1015.9 |
| 20260507075401 | 10 | 32 | 3.2 | 3.2 | 0.00 | 0.00 | 0.00 | 96 | 1016.0 |
| 20260507074859 | 10 | 25 | 3.2 | 3.2 | 0.00 | 0.00 | 0.00 | 97 | 1016.0 |
| 20260507074358 | 10 | 56 | 1.6 | 4.8 | 0.00 | 0.00 | 0.00 | 97 | 1016.0 |
| 20260507073858 | 10 | 86 | 1.6 | 4.8 | 0.00 | 0.00 | 0.00 | 97 | 1015.9 |
| 20260507073627 | 9 | 71 | 3.2 | 4.8 | 0.00 | 0.00 | 0.00 | 97 | 1016.0 |
| 20260507072857 | 9 | 68 | 3.2 | 4.8 | 0.00 | 0.00 | 0.00 | 97 | 1015.9 |
| 20260507072357 | 9 | 22 | 3.2 | 6.4 | 0.00 | 0.00 | 0.00 | 97 | 1015.8 |
| 20260507071857 | 9 | 12 | 3.2 | 6.4 | 0.00 | 0.00 | 0.00 | 97 | 1015.9 |
| 20260507071357 | 9 | 26 | 4.8 | 6.4 | 0.00 | 0.00 | 0.00 | 98 | 1015.7 |
| 20260507070905 | 8 | 13 | 3.2 | 4.8 | 0.00 | 0.00 | 0.00 | 98 | 1015.7 |
| 20260507065858 | 8 | 25 | 3.2 | 6.4 | 0.00 | 0.00 | 0.00 | 97 | 1015.8 |
| 20260507065355 | 8 | 34 | 3.2 | 4.8 | 0.00 | 0.00 | 0.00 | 97 | 1015.7 |
| 20260507064857 | 8 | 27 | 1.6 | 3.2 | 0.00 | 0.00 | 0.00 | 97 | 1015.5 |
| 20260507064400 | 8 | 60 | 0.0 | 0.0 | 0.00 | 0.00 | 0.00 | 97 | 1015.6 |
| 20260507063856 | 8 | 100 | 0.0 | 0.0 | 0.00 | 0.00 | 0.00 | 97 | 1015.6 |
| 20260507063357 | 8 | 102 | 0.0 | 0.0 | 0.00 | 0.00 | 0.00 | 98 | 1015.6 |
| 20260507062856 | 8 | 101 | 0.0 | 0.0 | 0.00 | 0.00 | 0.00 | 98 | 1015.5 |
| 20260507062354 | 8 | 156 | 0.0 | 0.0 | 0.00 | 0.00 | 0.00 | 98 | 1015.5 |
| 20260507061854 | 8 | 156 | 0.0 | 0.0 | 0.00 | 0.00 | 0.00 | 98 | 1015.5 |
| 20260507061355 | 8 | 156 | 0.0 | 0.0 | 0.00 | 0.00 | 0.00 | 98 | 1015.4 |
| 20260507060354 | 8 | 156 | 0.0 | 0.0 | 0.00 | 0.00 | 0.00 | 98 | 1015.4 |
| 20260507055853 | 7 | 156 | 0.0 | 0.0 | 0.00 | 0.00 | 0.00 | 98 | 1015.3 |
| 20260507055619 | 7 | 156 | 0.0 | 1.6 | 0.00 | 0.00 | 0.00 | 98 | 1015.2 |
| 20260507054854 | 7 | 156 | 1.6 | 1.6 | 0.00 | 0.00 | 0.00 | 98 | 1015.1 |
| 20260507054352 | 7 | 156 | 0.0 | 0.0 | 0.00 | 0.00 | 0.00 | 98 | 1015.2 |
| 20260507053853 | 7 | 154 | 0.0 | 0.0 | 0.00 | 0.00 | 0.00 | 98 | 1015.1 |
| 20260507053352 | 7 | 96 | 0.0 | 1.6 | 0.00 | 0.00 | 0.00 | 97 | 1015.1 |
| 20260507052854 | 7 | 44 | 0.0 | 4.8 | 0.00 | 0.00 | 0.00 | 97 | 1015.1 |
| 20260507052613 | 7 | 41 | 1.6 | 6.4 | 0.00 | 0.00 | 0.00 | 97 | 1015.0 |
| 20260507051854 | 7 | 89 | 0.0 | 9.7 | 0.00 | 0.00 | 0.00 | 97 | 1015.0 |
| 20260507051353 | 7 | 32 | 3.2 | 11.3 | 0.00 | 0.00 | 0.00 | 97 | 1015.2 |
| 20260507050859 | 7 | 101 | 1.6 | 11.3 | 0.00 | 0.00 | 0.00 | 97 | 1014.7 |
| 20260507050352 | 7 | 36 | 1.6 | 11.3 | 0.00 | 0.00 | 0.00 | 97 | 1014.7 |
| 20260507045853 | 7 | 17 | 6.4 | 11.3 | 0.00 | 0.00 | 0.00 | 97 | 1014.7 |
| 20260507045350 | 7 | 161 | 0.0 | 0.0 | 0.00 | 0.00 | 0.00 | 97 | 1014.6 |
| 20260507044853 | 7 | 161 | 0.0 | 0.0 | 0.00 | 0.00 | 0.00 | 97 | 1014.8 |
| 20260507044345 | 7 | 161 | 0.0 | 0.0 | 0.00 | 0.00 | 0.00 | 97 | 1014.7 |
| 20260507043841 | 7 | 161 | 0.0 | 0.0 | 0.00 | 0.00 | 0.00 | 97 | 1014.4 |
| 20260507043341 | 7 | 161 | 0.0 | 0.0 | 0.00 | 0.00 | 0.00 | 97 | 1014.5 |
| 20260507042841 | 7 | 161 | 0.0 | 0.0 | 0.00 | 0.00 | 0.00 | 97 | 1014.5 |
| 20260507042608 | 7 | 161 | 0.0 | 0.0 | 0.00 | 0.00 | 0.00 | 98 | 1014.6 |
| 20260507041841 | 7 | 161 | 0.0 | 0.0 | 0.00 | 0.00 | 0.00 | 98 | 1014.5 |
| 20260507040853 | 7 | 161 | 0.0 | 3.2 | 0.00 | 0.00 | 0.00 | 97 | 1014.6 |
| 20260507040342 | 7 | 162 | 1.6 | 3.2 | 0.00 | 0.00 | 0.00 | 97 | 1014.5 |
| 20260507035341 | 7 | 160 | 0.0 | 0.0 | 0.00 | 0.00 | 0.00 | 97 | 1014.2 |
| 20260507034841 | 7 | 160 | 0.0 | 0.0 | 0.00 | 0.00 | 0.00 | 97 | 1014.1 |
| 20260507034338 | 7 | 159 | 0.0 | 1.6 | 0.00 | 0.00 | 0.00 | 97 | 1014.4 |
| 20260507033843 | 7 | 160 | 0.0 | 1.6 | 0.00 | 0.00 | 0.00 | 98 | 1014.1 |
| 20260507033342 | 7 | 160 | 1.6 | 1.6 | 0.00 | 0.00 | 0.00 | 98 | 1014.2 |
| 20260507032841 | 6 | 139 | 1.6 | 3.2 | 0.00 | 0.00 | 0.00 | 98 | 1014.0 |
| 20260507032341 | 6 | 137 | 1.6 | 3.2 | 0.00 | 0.00 | 0.00 | 98 | 1014.2 |
| 20260507031848 | 6 | 145 | 1.6 | 1.6 | 0.00 | 0.00 | 0.00 | 97 | 1014.2 |
| 20260507031342 | 6 | 145 | 0.0 | 3.2 | 0.00 | 0.00 | 0.00 | 97 | 1013.9 |
| 20260507030841 | 6 | 178 | 1.6 | 3.2 | 0.00 | 0.00 | 0.00 | 97 | 1014.0 |
| 20260507030341 | 6 | 181 | 3.2 | 3.2 | 0.00 | 0.00 | 0.00 | 97 | 1013.9 |
| 20260507025842 | 6 | 177 | 1.6 | 3.2 | 0.00 | 0.00 | 0.00 | 97 | 1014.1 |
| 20260507025341 | 6 | 166 | 1.6 | 3.2 | 0.00 | 0.00 | 0.00 | 97 | 1013.8 |
| 20260507024841 | 6 | 181 | 1.6 | 4.8 | 0.00 | 0.00 | 0.00 | 97 | 1014.0 |
| 20260507024104 | 6 | 212 | 4.8 | 4.8 | 0.00 | 0.00 | 0.00 | 97 | 1013.9 |
| 20260507023341 | 6 | 211 | 4.8 | 4.8 | 0.00 | 0.00 | 0.00 | 97 | 1013.9 |
| 20260507022853 | 6 | 209 | 3.2 | 3.2 | 0.00 | 0.00 | 0.00 | 97 | 1013.9 |
| 20260507022605 | 6 | 209 | 1.6 | 3.2 | 0.00 | 0.00 | 0.00 | 96 | 1013.9 |
| 20260507021840 | 6 | 208 | 1.6 | 3.2 | 0.00 | 0.00 | 0.00 | 97 | 1013.8 |
| 20260507021338 | 6 | 208 | 3.2 | 4.8 | 0.00 | 0.00 | 0.00 | 97 | 1014.0 |
| 20260507021105 | 6 | 207 | 3.2 | 4.8 | 0.00 | 0.00 | 0.00 | 97 | 1013.8 |
| 20260507020339 | 6 | 185 | 1.6 | 3.2 | 0.00 | 0.00 | 0.00 | 97 | 1013.8 |
| 20260507015840 | 6 | 182 | 1.6 | 4.8 | 0.00 | 0.00 | 0.00 | 97 | 1013.9 |
| 20260507015603 | 6 | 204 | 3.2 | 6.4 | 0.00 | 0.00 | 0.00 | 97 | 1013.8 |
| 20260507014842 | 6 | 231 | 4.8 | 6.4 | 0.00 | 0.00 | 0.00 | 97 | 1013.6 |
| 20260507014605 | 6 | 237 | 4.8 | 6.4 | 0.00 | 0.00 | 0.00 | 97 | 1013.8 |
| 20260507013341 | 6 | 237 | 3.2 | 6.4 | 0.00 | 0.00 | 0.00 | 97 | 1013.6 |
| 20260507012840 | 6 | 240 | 6.4 | 6.4 | 0.00 | 0.00 | 0.00 | 97 | 1013.5 |
| 20260507012341 | 6 | 242 | 4.8 | 6.4 | 0.00 | 0.00 | 0.00 | 97 | 1013.6 |
| 20260507011845 | 6 | 242 | 4.8 | 4.8 | 0.00 | 0.00 | 0.00 | 97 | 1013.7 |
| 20260507011339 | 6 | 242 | 3.2 | 4.8 | 0.00 | 0.00 | 0.00 | 96 | 1013.6 |
| 20260507011107 | 6 | 242 | 3.2 | 4.8 | 0.00 | 0.00 | 0.00 | 97 | 1013.4 |
| 20260507010340 | 6 | 240 | 3.2 | 4.8 | 0.00 | 0.00 | 0.00 | 97 | 1013.4 |
| 20260507005840 | 6 | 241 | 3.2 | 4.8 | 0.00 | 0.00 | 0.00 | 96 | 1013.5 |
| 20260507005344 | 7 | 242 | 3.2 | 4.8 | 0.00 | 0.00 | 0.00 | 97 | 1013.4 |
| 20260507004840 | 7 | 241 | 3.2 | 4.8 | 0.00 | 0.00 | 0.00 | 97 | 1013.6 |
| 20260507003842 | 7 | 251 | 4.8 | 6.4 | 0.00 | 0.00 | 0.00 | 97 | 1013.4 |
| 20260507003600 | 7 | 252 | 4.8 | 6.4 | 0.00 | 0.00 | 0.00 | 97 | 1013.5 |
| 20260507002836 | 7 | 252 | 4.8 | 6.4 | 0.00 | 0.00 | 0.00 | 97 | 1013.6 |
| 20260507002334 | 7 | 248 | 4.8 | 6.4 | 0.00 | 0.00 | 0.00 | 97 | 1013.6 |
| 20260507001837 | 7 | 246 | 3.2 | 6.4 | 0.00 | 0.00 | 0.00 | 97 | 1013.7 |
| 20260507001337 | 7 | 246 | 6.4 | 9.7 | 0.00 | 0.00 | 0.00 | 97 | 1013.7 |
| 20260507000836 | 7 | 247 | 6.4 | 9.7 | 0.00 | 0.00 | 0.00 | 97 | 1013.7 |
| 20260507000337 | 7 | 251 | 6.4 | 9.7 | 0.00 | 0.00 | 0.00 | 97 | 1013.7 |
| 20260506235842 | 7 | 250 | 6.4 | 9.7 | 0.00 | 0.00 | 0.00 | 97 | 1013.4 |
| 20260506235338 | 7 | 251 | 6.4 | 6.4 | 0.00 | 0.00 | 0.00 | 97 | 1013.5 |
| 20260506234849 | 7 | 249 | 4.8 | 6.4 | 0.00 | 0.00 | 0.00 | 96 | 1013.5 |
| 20260506234336 | 7 | 248 | 3.2 | 6.4 | 0.00 | 0.00 | 0.00 | 96 | 1013.5 |
| 20260506233851 | 7 | 249 | 4.8 | 6.4 | 0.00 | 0.00 | 0.00 | 96 | 1013.4 |
| 20260506233336 | 7 | 246 | 4.8 | 4.8 | 0.00 | 0.00 | 0.00 | 96 | 1013.3 |
| 20260506232836 | 7 | 247 | 1.6 | 4.8 | 0.00 | 0.00 | 0.00 | 96 | 1013.3 |
| 20260506232336 | 7 | 249 | 3.2 | 4.8 | 0.00 | 0.00 | 0.00 | 96 | 1013.3 |
| 20260506231835 | 7 | 258 | 3.2 | 4.8 | 0.00 | 0.00 | 0.00 | 97 | 1013.3 |
| 20260506231336 | 7 | 255 | 4.8 | 4.8 | 0.00 | 0.00 | 0.00 | 96 | 1013.3 |
| 20260506230836 | 7 | 246 | 3.2 | 6.4 | 0.00 | 0.00 | 0.00 | 96 | 1013.3 |
| 20260506230337 | 7 | 253 | 6.4 | 6.4 | 0.00 | 0.00 | 0.00 | 96 | 1013.1 |
| 20260506225835 | 7 | 261 | 4.8 | 6.4 | 0.00 | 0.00 | 0.00 | 97 | 1013.3 |
| 20260506225602 | 7 | 260 | 4.8 | 4.8 | 0.00 | 0.00 | 0.00 | 96 | 1013.3 |
| 20260506225104 | 7 | 259 | 3.2 | 4.8 | 0.00 | 0.00 | 0.00 | 96 | 1013.1 |
| 20260506224340 | 7 | 260 | 3.2 | 6.4 | 0.00 | 0.00 | 0.00 | 96 | 1013.1 |
| 20260506224055 | 7 | 261 | 4.8 | 6.4 | 0.00 | 0.00 | 0.00 | 96 | 1013.1 |
| 20260506223339 | 7 | 260 | 4.8 | 6.4 | 0.00 | 0.00 | 0.00 | 95 | 1013.1 |
| 20260506222839 | 7 | 248 | 3.2 | 4.8 | 0.00 | 0.00 | 0.00 | 93 | 1013.0 |
| 20260506222340 | 7 | 235 | 3.2 | 3.2 | 0.00 | 0.00 | 0.00 | 93 | 1013.1 |
| 20260506222100 | 7 | 235 | 3.2 | 3.2 | 0.00 | 0.00 | 0.00 | 93 | 1013.0 |
| 20260506221607 | 7 | 231 | 3.2 | 3.2 | 0.00 | 0.00 | 0.00 | 93 | 1012.9 |
| 20260506220840 | 7 | 230 | 1.6 | 3.2 | 0.00 | 0.00 | 0.00 | 93 | 1013.0 |
| 20260506220339 | 7 | 231 | 3.2 | 3.2 | 0.00 | 0.00 | 0.00 | 93 | 1012.9 |
| 20260506215841 | 7 | 230 | 3.2 | 3.2 | 0.00 | 0.00 | 0.00 | 93 | 1013.0 |
| 20260506215339 | 7 | 229 | 1.6 | 3.2 | 0.00 | 0.00 | 0.00 | 93 | 1013.1 |
| 20260506214840 | 7 | 207 | 1.6 | 3.2 | 0.00 | 0.00 | 0.00 | 93 | 1012.7 |
| 20260506214341 | 8 | 239 | 1.6 | 3.2 | 0.00 | 0.00 | 0.00 | 92 | 1012.8 |
| 20260506213842 | 8 | 239 | 1.6 | 3.2 | 0.00 | 0.00 | 0.00 | 92 | 1012.9 |
| 20260506213341 | 8 | 227 | 1.6 | 3.2 | 0.00 | 0.00 | 0.00 | 92 | 1012.9 |
| 20260506212837 | 8 | 200 | 1.6 | 3.2 | 0.00 | 0.00 | 0.00 | 92 | 1013.0 |
| 20260506212340 | 8 | 259 | 1.6 | 3.2 | 0.00 | 0.00 | 0.00 | 93 | 1012.9 |
| 20260506211339 | 8 | 259 | 0.0 | 3.2 | 0.00 | 0.00 | 0.00 | 92 | 1012.8 |
| 20260506211113 | 8 | 259 | 0.0 | 4.8 | 0.00 | 0.00 | 0.00 | 92 | 1012.7 |
| 20260506205840 | 9 | 256 | 3.2 | 4.8 | 0.00 | 0.00 | 0.00 | 93 | 1012.8 |
| 20260506205622 | 9 | 262 | 3.2 | 4.8 | 0.00 | 0.00 | 0.00 | 93 | 1012.6 |
| 20260506204840 | 9 | 261 | 1.6 | 4.8 | 0.00 | 0.00 | 0.00 | 92 | 1012.6 |
| 20260506204341 | 9 | 265 | 3.2 | 4.8 | 0.00 | 0.00 | 0.00 | 92 | 1012.4 |
| 20260506203847 | 9 | 259 | 3.2 | 3.2 | 0.00 | 0.00 | 0.00 | 91 | 1012.5 |
| 20260506203340 | 9 | 261 | 0.0 | 6.4 | 0.00 | 0.00 | 0.00 | 91 | 1012.2 |
| 20260506202841 | 10 | 279 | 1.6 | 9.7 | 0.00 | 0.00 | 0.00 | 90 | 1012.3 |
| 20260506201840 | 10 | 295 | 4.8 | 12.9 | 0.00 | 0.00 | 0.00 | 90 | 1012.4 |
| 20260506201342 | 10 | 304 | 6.4 | 12.9 | 0.00 | 0.00 | 0.00 | 90 | 1012.1 |
| 20260506201106 | 10 | 283 | 1.6 | 11.3 | 0.00 | 0.00 | 0.00 | 90 | 1012.2 |
| 20260506200341 | 10 | 255 | 3.2 | 11.3 | 0.00 | 0.00 | 0.00 | 89 | 1012.2 |
| 20260506195840 | 10 | 284 | 1.6 | 12.9 | 0.00 | 0.00 | 0.00 | 89 | 1012.3 |
| 20260506195342 | 10 | 317 | 6.4 | 12.9 | 0.00 | 0.00 | 0.00 | 89 | 1012.0 |
| 20260506195101 | 10 | 284 | 6.4 | 11.3 | 0.00 | 0.00 | 0.00 | 89 | 1012.1 |
| 20260506194344 | 10 | 319 | 6.4 | 6.4 | 0.00 | 0.00 | 0.00 | 89 | 1012.1 |
| 20260506193841 | 10 | 299 | 1.6 | 12.9 | 0.00 | 0.00 | 0.00 | 88 | 1011.9 |
| 20260506193340 | 10 | 272 | 3.2 | 14.5 | 0.00 | 0.00 | 0.00 | 88 | 1011.7 |
| 20260506193107 | 10 | 322 | 11.3 | 14.5 | 0.00 | 0.00 | 0.00 | 87 | 1011.8 |
| 20260506192342 | 10 | 295 | 6.4 | 12.9 | 0.00 | 0.00 | 0.00 | 87 | 1011.8 |
| 20260506191842 | 11 | 313 | 8.0 | 14.5 | 0.00 | 0.00 | 0.00 | 87 | 1011.9 |
| 20260506191340 | 11 | 329 | 6.4 | 17.7 | 0.00 | 0.00 | 0.00 | 86 | 1011.7 |
| 20260506190842 | 11 | 286 | 3.2 | 17.7 | 0.00 | 0.00 | 0.00 | 85 | 1011.7 |
| 20260506190601 | 11 | 301 | 12.9 | 22.5 | 0.00 | 0.00 | 0.00 | 84 | 1011.6 |
| 20260506185848 | 11 | 298 | 14.5 | 22.5 | 0.00 | 0.00 | 0.00 | 84 | 1011.5 |
| 20260506185601 | 11 | 310 | 11.3 | 24.1 | 0.00 | 0.00 | 0.00 | 84 | 1011.5 |
| 20260506184840 | 11 | 301 | 12.9 | 24.1 | 0.00 | 0.00 | 0.00 | 83 | 1011.4 |
| 20260506184340 | 11 | 290 | 4.8 | 25.7 | 0.00 | 0.00 | 0.00 | 83 | 1011.4 |
| 20260506183839 | 11 | 333 | 14.5 | 25.7 | 0.00 | 0.00 | 0.00 | 83 | 1011.5 |
| 20260506183340 | 11 | 321 | 9.7 | 27.4 | 0.00 | 0.00 | 0.00 | 82 | 1011.4 |
| 20260506182840 | 11 | 314 | 19.3 | 27.4 | 0.00 | 0.00 | 0.00 | 82 | 1011.3 |
| 20260506182340 | 11 | 322 | 9.7 | 25.7 | 0.00 | 0.00 | 0.00 | 81 | 1011.2 |
| 20260506181841 | 11 | 287 | 11.3 | 24.1 | 0.00 | 0.00 | 0.00 | 82 | 1011.1 |
| 20260506181344 | 11 | 305 | 16.1 | 24.1 | 0.00 | 0.00 | 0.00 | 81 | 1011.0 |
| 20260506180837 | 11 | 297 | 11.3 | 25.7 | 0.00 | 0.00 | 0.00 | 81 | 1010.9 |
| 20260506180338 | 11 | 321 | 8.0 | 25.7 | 0.00 | 0.00 | 0.00 | 82 | 1011.0 |
| 20260506175835 | 12 | 303 | 11.3 | 24.1 | 0.00 | 0.00 | 0.00 | 80 | 1011.0 |
| 20260506175338 | 12 | 224 | 8.0 | 29.0 | 0.00 | 0.00 | 0.00 | 81 | 1010.9 |
| 20260506174838 | 12 | 338 | 12.9 | 29.0 | 0.00 | 0.00 | 0.00 | 80 | 1010.9 |
| 20260506174337 | 12 | 318 | 12.9 | 25.7 | 0.00 | 0.00 | 0.00 | 80 | 1011.0 |
| 20260506173837 | 12 | 326 | 17.7 | 25.7 | 0.00 | 0.00 | 0.00 | 79 | 1010.7 |
| 20260506173337 | 12 | 309 | 11.3 | 27.4 | 0.00 | 0.00 | 0.00 | 80 | 1010.4 |
| 20260506172837 | 12 | 349 | 11.3 | 29.0 | 0.00 | 0.00 | 0.00 | 78 | 1010.6 |
| 20260506172337 | 12 | 320 | 14.5 | 35.4 | 0.00 | 0.00 | 0.00 | 77 | 1010.5 |
| 20260506171841 | 12 | 287 | 19.3 | 27.4 | 0.00 | 0.00 | 0.00 | 77 | 1010.6 |
| 20260506171336 | 12 | 318 | 14.5 | 27.4 | 0.00 | 0.00 | 0.00 | 76 | 1010.5 |
| 20260506170840 | 12 | 307 | 20.9 | 27.4 | 0.00 | 0.00 | 0.00 | 76 | 1010.6 |
| 20260506170337 | 12 | 317 | 17.7 | 27.4 | 0.00 | 0.00 | 0.00 | 73 | 1010.6 |
| 20260506165837 | 12 | 294 | 17.7 | 29.0 | 0.00 | 0.00 | 0.00 | 74 | 1010.5 |
| 20260506165336 | 12 | 325 | 12.9 | 30.6 | 0.00 | 0.00 | 0.00 | 76 | 1010.4 |
| 20260506164835 | 12 | 312 | 16.1 | 30.6 | 0.00 | 0.00 | 0.00 | 76 | 1010.4 |
| 20260506164335 | 12 | 310 | 20.9 | 27.4 | 0.00 | 0.00 | 0.00 | 76 | 1010.2 |
| 20260506163835 | 13 | 356 | 17.7 | 24.1 | 0.00 | 0.00 | 0.00 | 77 | 1010.2 |
| 20260506163337 | 13 | 305 | 12.9 | 24.1 | 0.00 | 0.00 | 0.00 | 75 | 1010.3 |
| 20260506162836 | 13 | 308 | 9.7 | 29.0 | 0.00 | 0.00 | 0.00 | 76 | 1010.1 |
| 20260506162337 | 13 | 317 | 19.3 | 29.0 | 0.00 | 0.00 | 0.00 | 74 | 1010.1 |
| 20260506161836 | 13 | 325 | 14.5 | 27.4 | 0.00 | 0.00 | 0.00 | 74 | 1010.1 |
| 20260506161555 | 13 | 317 | 11.3 | 30.6 | 0.00 | 0.00 | 0.00 | 78 | 1010.0 |
| 20260506160837 | 13 | 333 | 14.5 | 30.6 | 0.00 | 0.00 | 0.00 | 74 | 1010.1 |
| 20260506160336 | 13 | 303 | 14.5 | 30.6 | 0.00 | 0.00 | 0.00 | 77 | 1010.2 |
| 20260506160116 | 13 | 311 | 20.9 | 30.6 | 0.00 | 0.00 | 0.00 | 77 | 1010.1 |
| 20260506155340 | 13 | 302 | 11.3 | 29.0 | 0.00 | 0.00 | 0.00 | 77 | 1010.0 |
| 20260506154838 | 13 | 329 | 9.7 | 33.8 | 0.00 | 0.00 | 0.00 | 78 | 1010.1 |
| 20260506154336 | 12 | 322 | 14.5 | 33.8 | 0.00 | 0.00 | 0.00 | 79 | 1009.9 |
| 20260506153840 | 12 | 332 | 22.5 | 27.4 | 0.00 | 0.00 | 0.00 | 77 | 1010.1 |
| 20260506153335 | 12 | 321 | 6.4 | 27.4 | 0.00 | 0.00 | 0.00 | 79 | 1010.2 |
| 20260506152836 | 12 | 322 | 14.5 | 27.4 | 0.00 | 0.00 | 0.00 | 79 | 1010.3 |
| 20260506152336 | 12 | 318 | 14.5 | 29.0 | 0.00 | 0.00 | 0.00 | 77 | 1010.3 |
| 20260506151835 | 13 | 296 | 14.5 | 29.0 | 0.00 | 0.00 | 0.00 | 77 | 1010.1 |
| 20260506151337 | 13 | 307 | 12.9 | 27.4 | 0.00 | 0.00 | 0.00 | 79 | 1010.2 |
| 20260506150835 | 13 | 325 | 11.3 | 29.0 | 0.00 | 0.00 | 0.00 | 79 | 1010.1 |
| 20260506150336 | 13 | 317 | 20.9 | 29.0 | 0.00 | 0.00 | 0.00 | 77 | 1010.1 |
| 20260506145839 | 13 | 322 | 11.3 | 27.4 | 0.00 | 0.00 | 0.00 | 79 | 1009.9 |
| 20260506145604 | 13 | 317 | 9.7 | 27.4 | 0.00 | 0.00 | 0.00 | 77 | 1009.9 |
| 20260506144836 | 13 | 324 | 14.5 | 22.5 | 0.00 | 0.00 | 0.00 | 76 | 1010.0 |
| 20260506144338 | 13 | 327 | 14.5 | 22.5 | 0.00 | 0.00 | 0.00 | 78 | 1010.0 |
| 20260506144103 | 13 | 324 | 8.0 | 22.5 | 0.00 | 0.00 | 0.00 | 79 | 1010.0 |
| 20260506143337 | 13 | 318 | 11.3 | 22.5 | 0.00 | 0.00 | 0.00 | 78 | 1009.9 |
| 20260506142835 | 13 | 318 | 17.7 | 25.7 | 0.00 | 0.00 | 0.00 | 79 | 1010.1 |
| 20260506142602 | 13 | 333 | 12.9 | 25.7 | 0.00 | 0.00 | 0.00 | 78 | 1010.0 |
| 20260506141834 | 13 | 325 | 17.7 | 25.7 | 0.00 | 0.00 | 0.00 | 76 | 1010.0 |
| 20260506141338 | 13 | 348 | 14.5 | 29.0 | 0.00 | 0.00 | 0.00 | 78 | 1010.0 |
| 20260506141107 | 13 | 308 | 14.5 | 29.0 | 0.00 | 0.00 | 0.00 | 77 | 1010.1 |
| 20260506140337 | 13 | 304 | 11.3 | 22.5 | 0.00 | 0.00 | 0.00 | 79 | 1010.0 |
| 20260506135836 | 13 | 311 | 12.9 | 22.5 | 0.00 | 0.00 | 0.00 | 78 | 1009.9 |
| 20260506135337 | 13 | 333 | 11.3 | 22.5 | 0.00 | 0.00 | 0.00 | 79 | 1010.2 |
| 20260506134834 | 13 | 340 | 14.5 | 20.9 | 0.00 | 0.00 | 0.00 | 79 | 1010.0 |
| 20260506134336 | 13 | 298 | 8.0 | 22.5 | 0.00 | 0.00 | 0.00 | 80 | 1010.2 |
| 20260506133836 | 12 | 317 | 17.7 | 22.5 | 0.00 | 0.00 | 0.00 | 80 | 1010.1 |
| 20260506133335 | 12 | 336 | 6.4 | 22.5 | 0.00 | 0.00 | 0.00 | 82 | 1010.1 |
| 20260506132836 | 12 | 336 | 12.9 | 22.5 | 0.00 | 0.00 | 0.00 | 80 | 1010.3 |
| 20260506132333 | 12 | 302 | 11.3 | 24.1 | 0.00 | 0.00 | 0.00 | 82 | 1010.4 |
| 20260506132104 | 12 | 315 | 11.3 | 22.5 | 0.00 | 0.00 | 0.00 | 83 | 1010.1 |
| 20260506131336 | 12 | 336 | 8.0 | 24.1 | 0.00 | 0.00 | 0.00 | 82 | 1010.2 |
| 20260506130836 | 12 | 316 | 8.0 | 24.1 | 0.00 | 0.00 | 0.00 | 83 | 1010.1 |
| 20260506130335 | 12 | 339 | 19.3 | 24.1 | 0.00 | 0.00 | 0.00 | 84 | 1010.0 |
| 20260506125336 | 12 | 314 | 11.3 | 22.5 | 0.00 | 0.00 | 0.00 | 83 | 1010.0 |
| 20260506124837 | 12 | 300 | 9.7 | 29.0 | 0.00 | 0.00 | 0.00 | 84 | 1010.0 |
| 20260506124335 | 12 | 298 | 17.7 | 29.0 | 0.00 | 0.00 | 0.00 | 82 | 1009.9 |
| 20260506123835 | 12 | 303 | 6.4 | 17.7 | 0.00 | 0.00 | 0.00 | 81 | 1009.7 |
| 20260506123335 | 13 | 321 | 8.0 | 22.5 | 0.00 | 0.00 | 0.00 | 82 | 1009.9 |
| 20260506122837 | 13 | 315 | 6.4 | 22.5 | 0.00 | 0.00 | 0.00 | 84 | 1010.0 |
| 20260506122336 | 12 | 309 | 4.8 | 25.7 | 0.00 | 0.00 | 0.00 | 83 | 1009.8 |
| 20260506121836 | 13 | 293 | 12.9 | 25.7 | 0.00 | 0.00 | 0.00 | 84 | 1009.9 |
| 20260506121338 | 12 | 327 | 17.7 | 25.7 | 0.00 | 0.00 | 0.00 | 80 | 1009.9 |
| 20260506120836 | 12 | 352 | 9.7 | 22.5 | 0.00 | 0.00 | 0.00 | 82 | 1009.7 |
| 20260506120336 | 12 | 310 | 11.3 | 20.9 | 0.00 | 0.00 | 0.00 | 83 | 1009.7 |
| 20260506115836 | 12 | 319 | 12.9 | 20.9 | 0.00 | 0.00 | 0.00 | 82 | 1009.9 |
| 20260506115605 | 12 | 311 | 6.4 | 17.7 | 0.00 | 0.00 | 0.00 | 85 | 1009.9 |
| 20260506114835 | 12 | 322 | 9.7 | 20.9 | 0.00 | 0.00 | 0.00 | 83 | 1010.0 |